TimeEDT,TemperatureF,Dew PointF,Humidity,Sea Level PressureIn,VisibilityMPH,Wind Direction,Wind SpeedMPH,Gust SpeedMPH,PrecipitationIn,Events,Conditions,WindDirDegrees,DateUTC
12:15 AM,65.8,56.7,72,29.80,10.0,WNW,17.3,23.0,N/A,,Overcast,300,2012-08-17 04:15:00
12:34 AM,64.9,56.5,74,29.80,10.0,NW,19.6,31.1,N/A,,Overcast,320,2012-08-17 04:34:00
12:54 AM,64.0,56.3,76,29.80,10.0,NW,17.3,25.3,N/A,,Overcast,320,2012-08-17 04:54:00
1:14 AM,63.9,53.4,69,29.82,10.0,NW,23.0,28.8,N/A,,Overcast,310,2012-08-17 05:14:00
1:34 AM,63.9,54.5,72,29.82,10.0,NW,17.3,23.0,N/A,,Overcast,320,2012-08-17 05:34:00
1:55 AM,63.5,54.1,72,29.83,10.0,NW,15.0,21.9,N/A,,Overcast,320,2012-08-17 05:55:00
2:14 AM,63.5,54.9,73,29.83,10.0,NW,15.0,20.7,N/A,,Overcast,310,2012-08-17 06:14:00
2:34 AM,62.4,54.0,74,29.83,7.0,NW,16.1,26.5,N/A,Rain,Light Rain,310,2012-08-17 06:34:00
2:54 AM,61.0,55.4,82,29.83,10.0,NNW,10.4,23.0,N/A,Rain,Light Rain,330,2012-08-17 06:54:00
3:14 AM,62.2,55.0,77,29.83,10.0,NW,16.1,-,N/A,,Overcast,320,2012-08-17 07:14:00
3:35 AM,61.3,53.8,76,29.83,10.0,NW,13.8,19.6,N/A,,Overcast,310,2012-08-17 07:35:00
3:54 AM,61.5,54.7,78,29.83,10.0,NW,12.7,18.4,N/A,Rain,Rain,320,2012-08-17 07:54:00
4:14 AM,61.0,54.7,80,29.83,10.0,WNW,12.7,-,N/A,,Overcast,300,2012-08-17 08:14:00
4:34 AM,61.9,53.6,74,29.84,10.0,WNW,15.0,21.9,N/A,,Overcast,300,2012-08-17 08:34:00
4:54 AM,61.9,54.1,76,29.83,10.0,WNW,17.3,26.5,N/A,,Mostly Cloudy,290,2012-08-17 08:54:00
5:34 AM,61.5,53.6,75,29.85,10.0,WNW,18.4,24.2,N/A,,Mostly Cloudy,290,2012-08-17 09:34:00
5:55 AM,61.3,53.2,75,29.86,10.0,WNW,17.3,24.2,N/A,,Overcast,300,2012-08-17 09:55:00
6:34 AM,60.1,51.8,74,29.88,10.0,NNW,16.1,27.6,N/A,,Overcast,330,2012-08-17 10:34:00
6:55 AM,60.1,51.8,74,29.88,10.0,NW,15.0,24.2,N/A,,Overcast,320,2012-08-17 10:55:00
7:34 AM,60.1,50.4,70,29.89,10.0,NW,10.4,20.7,N/A,,Mostly Cloudy,320,2012-08-17 11:34:00
7:54 AM,60.1,49.5,68,29.90,10.0,NW,15.0,20.7,N/A,,Mostly Cloudy,310,2012-08-17 11:54:00
8:14 AM,60.8,50.2,68,29.90,10.0,NW,15.0,20.7,N/A,,Overcast,310,2012-08-17 12:14:00
8:34 AM,60.3,50.5,70,29.90,10.0,WNW,15.0,21.9,N/A,,Mostly Cloudy,300,2012-08-17 12:34:00
8:54 AM,60.8,50.0,68,29.90,10.0,NW,18.4,24.2,N/A,,Mostly Cloudy,310,2012-08-17 12:54:00
9:14 AM,61.2,50.0,67,29.90,10.0,WNW,16.1,26.5,N/A,,Mostly Cloudy,300,2012-08-17 13:14:00
9:34 AM,61.9,50.4,66,29.90,10.0,WNW,16.1,23.0,N/A,,Mostly Cloudy,290,2012-08-17 13:34:00
9:54 AM,63.1,51.4,66,29.90,10.0,NW,13.8,23.0,N/A,,Mostly Cloudy,310,2012-08-17 13:54:00
10:14 AM,63.9,50.5,62,29.90,10.0,WNW,20.7,25.3,N/A,,Mostly Cloudy,290,2012-08-17 14:14:00
10:34 AM,63.5,50.4,62,29.90,10.0,WNW,15.0,23.0,N/A,,Mostly Cloudy,300,2012-08-17 14:34:00
10:54 AM,63.5,48.4,58,29.91,10.0,WNW,16.1,25.3,N/A,,Mostly Cloudy,300,2012-08-17 14:54:00
11:14 AM,64.9,48.2,55,29.92,10.0,WNW,19.6,25.3,N/A,,Scattered Clouds,300,2012-08-17 15:14:00
11:34 AM,64.0,47.7,55,29.92,10.0,WNW,15.0,23.0,N/A,,Scattered Clouds,290,2012-08-17 15:34:00
11:54 AM,64.2,48.4,56,29.92,10.0,WNW,13.8,19.6,N/A,,Scattered Clouds,290,2012-08-17 15:54:00
12:15 PM,64.4,48.6,56,29.93,10.0,WNW,16.1,20.7,N/A,,Mostly Cloudy,290,2012-08-17 16:15:00
12:34 PM,66.0,48.0,52,29.94,10.0,WNW,17.3,25.3,N/A,,Scattered Clouds,290,2012-08-17 16:34:00
12:54 PM,65.8,48.0,53,29.94,10.0,West,17.3,-,N/A,,Mostly Cloudy,280,2012-08-17 16:54:00
1:15 PM,65.3,48.0,54,29.94,10.0,WNW,18.4,21.9,N/A,,Scattered Clouds,290,2012-08-17 17:15:00
1:34 PM,66.4,48.6,53,29.95,10.0,West,17.3,-,N/A,,Scattered Clouds,280,2012-08-17 17:34:00
1:54 PM,66.6,48.0,51,29.95,10.0,West,16.1,21.9,N/A,,Scattered Clouds,280,2012-08-17 17:54:00
2:15 PM,66.9,46.4,48,29.96,10.0,West,15.0,20.7,N/A,,Scattered Clouds,280,2012-08-17 18:15:00
2:34 PM,66.9,47.5,50,29.95,10.0,West,16.1,21.9,N/A,,Scattered Clouds,270,2012-08-17 18:34:00
2:54 PM,67.8,47.5,48,29.95,10.0,West,16.1,-,N/A,,Scattered Clouds,280,2012-08-17 18:54:00
3:14 PM,68.7,46.9,46,29.95,10.0,West,16.1,23.0,N/A,,Clear,270,2012-08-17 19:14:00
3:34 PM,68.0,45.9,45,29.95,10.0,West,15.0,21.9,N/A,,Clear,270,2012-08-17 19:34:00
3:54 PM,68.9,44.6,42,29.96,10.0,WNW,11.5,-,N/A,,Clear,290,2012-08-17 19:54:00
4:14 PM,68.9,44.6,42,29.96,10.0,WNW,15.0,-,N/A,,Clear,290,2012-08-17 20:14:00
4:34 PM,68.5,43.9,41,29.97,10.0,NW,13.8,-,N/A,,Clear,310,2012-08-17 20:34:00
4:54 PM,68.4,41.7,38,29.97,10.0,WNW,12.7,19.6,N/A,,Clear,290,2012-08-17 20:54:00
5:14 PM,68.5,41.0,37,29.97,10.0,NW,13.8,20.7,N/A,,Clear,310,2012-08-17 21:14:00
5:34 PM,68.7,39.0,34,29.97,10.0,NW,13.8,18.4,N/A,,Clear,310,2012-08-17 21:34:00
5:54 PM,68.2,37.2,32,29.97,10.0,WNW,15.0,18.4,N/A,,Clear,300,2012-08-17 21:54:00
6:14 PM,68.2,37.0,32,29.97,10.0,NW,12.7,-,N/A,,Clear,310,2012-08-17 22:14:00
6:34 PM,68.0,36.5,31,29.98,10.0,NW,12.7,-,N/A,,Clear,310,2012-08-17 22:34:00
6:54 PM,67.3,36.9,33,29.98,10.0,WNW,13.8,18.4,N/A,,Clear,300,2012-08-17 22:54:00
7:14 PM,66.6,39.7,37,29.98,10.0,NW,11.5,18.4,N/A,,Clear,310,2012-08-17 23:14:00
7:34 PM,66.2,36.0,33,29.98,10.0,WNW,12.7,18.4,N/A,,Clear,300,2012-08-17 23:34:00
7:54 PM,65.7,37.2,35,29.98,10.0,NW,11.5,19.6,N/A,,Clear,310,2012-08-17 23:54:00
8:14 PM,65.1,37.2,36,29.98,10.0,NW,11.5,-,N/A,,Clear,320,2012-08-18 00:14:00
8:54 PM,64.0,38.3,39,29.99,10.0,NW,10.4,18.4,N/A,,Clear,320,2012-08-18 00:54:00
9:14 PM,63.7,42.6,46,29.99,10.0,NNW,11.5,17.3,N/A,,Clear,340,2012-08-18 01:14:00
9:34 PM,63.5,42.3,46,30.00,10.0,NNW,11.5,17.3,N/A,,Clear,340,2012-08-18 01:34:00
9:54 PM,63.3,41.0,44,30.01,10.0,NNW,11.5,17.3,N/A,,Clear,330,2012-08-18 01:54:00
10:15 PM,63.0,39.9,43,30.01,10.0,NW,9.2,-,N/A,,Clear,320,2012-08-18 02:15:00
10:34 PM,62.8,41.9,46,30.01,10.0,NW,9.2,-,N/A,,Clear,320,2012-08-18 02:34:00
10:54 PM,62.8,43.2,49,30.01,10.0,NW,6.9,-,N/A,,Clear,310,2012-08-18 02:54:00
11:15 PM,62.6,44.2,51,30.01,10.0,NW,6.9,-,N/A,,Clear,310,2012-08-18 03:15:00
11:34 PM,63.1,45.7,53,30.00,10.0,NW,9.2,-,N/A,,Clear,310,2012-08-18 03:34:00
11:54 PM,63.0,46.2,54,30.00,10.0,WNW,6.9,-,N/A,,Clear,290,2012-08-18 03:54:00